STARLINK-1755 (46591 NORAD) Tracking and Keplerian Element Data

This shows tracking and keplerian element data for the satellite.

Feedback or suggestion? Click here.




ElementValue
Catalog46591
NameSTARLINK-1755
Epoch Orbit433
Epoch Day302.83335648
Epoch Year2020
RAAN332.0736
Inclination53.0005
Eccentricity0.0001503
Argument of Perigee65.3604
Mean Anonmoly18.9117
Mean Motion15.62748089
Decay Rate0.0002894
L11 46591U 20070BM 20302.83335648 .00028940 00000-0 32082-3 0 9992
L22 46591 53.0005 332.0736 0001503 65.3604 18.9117 15.62748089 4334

Live tracking and technical data element details for STARLINK-1755 (NORAD 46591). STARLINK-1755 can be tracked NOW for your location showing map with azimuth and elevation plus other details from your city location.

Track the satellite on the map from your city or location and see movement details for azimuth, elevation, latitude, longitude, range, height, and movement on the map or in text.







IsCatalogInMostPopularTable: catalog: 46591, numindb: 5
Update: records affected: 1



GetName: 46591 STARLINK-1755

Hit Count: updated at: Fri, 30 Oct 2020 01:36:35 GMT